[[{"header":{"parameterUnit":"m.s-1","parameterCategory":2,"la1":30.2991,"la2":30.254,"lo1":-89.0895,"lo2":-89.0444,"dy":0.0017,"dx":0.0017,"nx":28,"ny":28,"refTime":"2024-04-19T21:00:00:Z","depth":"0","parameterNumber":2,"parameterNumberName":"U-component_of_CURRENTS"},"data":[0,0,0,0,0,0,0,0,0,0,0,0,0,0,0,0,0,0,0,0,0,0,0,0,0,0,0,0,0,0,0,0,0,0,0,0,0,0,0,0,0,0,0,0,0,0,0,0,0,0,0,0,0,0,0,0,0,0,0.203,0.203,0,0.2048,0.2048,0.2049,0.2065,0.2065,0.2065,0.2065,0.213,0.2131,0.2133,0,0,0,0,0,0,0,0,0,0,0,0,0,0.2182,0.2178,0.203,0.203,0.203,0.2048,0.2048,0.2049,0.2065,0.2065,0.2065,0.2065,0.2129,0.2131,0.2133,0,0,0,0,0,0,0,0,0,0,0,0,0,0.215,0.2177,0.203,0.204,0.2041,0.2048,0.2048,0.2049,0.2065,0.2065,0.2065,0.2065,0.2129,0.2131,0.2133,0.2144,0,0,0.2141,0.2142,0,0,0,0,0,0,0,0,0.2152,0.2144,0.2038,0.2039,0.204,0.2054,0.2126,0.2083,0.2065,0.2057,0.2065,0.2065,0.2108,0.2112,0.2115,0.2147,0.215,0.2141,0.2142,0.2143,0.2144,0,0,0,0,0,0,0,0.2154,0.2145,0.2038,0.2039,0.204,0.2103,0.2097,0.2118,0.2082,0.2057,0.2058,0.2059,0.2109,0.2113,0.2117,0.2151,0.2141,0.2143,0.2144,0.2145,0.2213,0.2213,0,0,0,0,0,0,0.214,0.2145,0.2037,0.2038,0.2097,0.2099,0.2093,0.205,0.2081,0.2086,0.2059,0.206,0.2109,0.2114,0.212,0.2155,0.2143,0.2145,0.2147,0.2212,0.2213,0.2213,0,0,0,0,0,0,0.2142,0.2128,0.2037,0.2095,0.2088,0.2095,0.2048,0.205,0.2055,0.2082,0.2087,0.2062,0.2109,0.2116,0.2144,0.2157,0.2147,0.2149,0.2212,0.2212,0.2213,0.2212,0,0,0,0,0,0,0.2146,0.2128,0.2101,0.2092,0.2084,0.2046,0.2048,0.205,0.2055,0.2056,0.2086,0.2092,0.211,0.214,0.2146,0.216,0.2151,0.2211,0.2212,0.2213,0.2212,0.2213,0.2213,0,0,0,0,0,0.215,0.2118,0.2098,0.2087,0.2041,0.2046,0.2049,0.2058,0.2055,0.2062,0.208,0.2091,0.2149,0.2142,0.2149,0.2164,0.2211,0.2212,0.2213,0.2211,0.2212,0.2213,0,0,0,0,0,0,0.2214,0.2116,0.2095,0.2045,0.2046,0.2049,0.2057,0.2056,0.2074,0.2076,0.2097,0.2105,0.2134,0.2147,0.2139,0.2184,0.2181,0.2184,0.2178,0.2179,0.218,0.2178,0.2153,0,0,0,0,0,0.22,0.2123,0.209,0.2059,0.2051,0.205,0.2055,0.2057,0.2069,0.2076,0.2093,0.2116,0.2142,0.2158,0.2181,0.2206,0.2228,0.2219,0.222,0.2221,0.2223,0.2262,0.2267,0.2216,0.2216,0.2216,0,0,0.2232,0.216,0.2129,0.2064,0.2062,0.2056,0.2054,0.2059,0.2065,0.2081,0.21,0.212,0.2149,0.2178,0.2193,0.2191,0.2249,0.2222,0.2222,0.2224,0.2263,0.2268,0.2273,0.2216,0.2216,0.2216,0,0,0.2243,0.2177,0.2116,0.2102,0.2072,0.2071,0.2069,0.2064,0.2072,0.2086,0.2105,0.2131,0.2161,0.219,0.2207,0.2225,0.2251,0.2231,0.2237,0.2275,0.2279,0.2284,0.2327,0.2335,0.2233,0.2233,0.2233,0,0.2294,0.2186,0.2123,0.208,0.2078,0.2073,0.2066,0.2074,0.2086,0.21,0.2093,0.2147,0.2167,0.2216,0.222,0.2229,0.2254,0.2231,0.2276,0.2281,0.2285,0.2329,0.2338,0.2233,0.2233,0.2233,0.2233,0,0.2251,0.2189,0.2171,0.2085,0.2087,0.2085,0.2081,0.2092,0.2094,0.2104,0.2142,0.2166,0.2202,0.221,0.2219,0.2266,0.2276,0.2272,0.2273,0.229,0.2335,0.2345,0.2233,0.2233,0.2233,0.2233,0,0,0.2333,0.2161,0.217,0.2118,0.2086,0.2084,0.2101,0.2114,0.2133,0.2143,0.2174,0.2207,0.222,0.224,0.226,0.2286,0.2337,0.2289,0.2291,0.2332,0.2429,0.2491,0.2507,0.2341,0.2342,0.2344,0.2451,0,0.2337,0.2217,0.216,0.213,0.2077,0.2087,0.2107,0.2127,0.2147,0.2179,0.2207,0.2243,0.2233,0.2256,0.2279,0.2325,0.2361,0.2309,0.2407,0.241,0.2463,0.252,0.2481,0.2579,0.246,0.2462,0.2463,0,0.2335,0.2231,0.2156,0.2089,0.2083,0.2087,0.2119,0.2137,0.2188,0.2211,0.2249,0.2273,0.2324,0.2304,0.2388,0.2356,0.2393,0.242,0.2425,0.2489,0.249,0.2541,0.2601,0.2436,0.2478,0.2477,0.2476,0,0.2376,0.2267,0.2187,0.2163,0.2085,0.2093,0.2099,0.2145,0.2171,0.2235,0.2268,0.2323,0.2358,0.2404,0.2457,0.2429,0.255,0.2521,0.2615,0.262,0.2611,0.2613,0.2523,0.2586,0.2586,0.2585,0.2585,0,0.2389,0.2347,0.2185,0.2142,0.2104,0.2083,0.2106,0.2132,0.2187,0.2236,0.228,0.2338,0.2382,0.2452,0.2488,0.2597,0.2582,0.2638,0.266,0.2611,0.2612,0.2488,0.2436,0.2589,0.2589,0.2588,0.2587,0,0.2446,0.2339,0.2231,0.2119,0.2098,0.2077,0.2085,0.211,0.2172,0.224,0.2265,0.2357,0.2467,0.2527,0.2622,0.2653,0.2669,0.2779,0.2726,0.2741,0.2676,0.2628,0.257,0.25,0.2905,0.2907,0.2909,0,0.2439,0.2372,0.2211,0.2145,0.2088,0.2054,0.2051,0.2097,0.2131,0.2262,0.2298,0.2425,0.2522,0.2695,0.279,0.2903,0.2753,0.2917,0.2858,0.2689,0.265,0.2521,0.2455,0.2843,0.2844,0.2845,0.2846,0,0.2423,0.2367,0.2256,0.211,0.2055,0.2025,0.2025,0.2051,0.2138,0.2212,0.2331,0.2422,0.2634,0.2735,0.2896,0.2966,0.2769,0.2945,0.277,0.2612,0.2465,0.2402,0.2751,0.2855,0.2854,0.2854,0.2853,0.2853,0.2408,0.2326,0.217,0.2042,0.1992,0.1978,0.1966,0.2014,0.2074,0.2181,0.2305,0.2422,0.2595,0.2835,0.2895,0.291,0.2872,0.2815,0.2779,0.2668,0.2567,0.2956,0.3085,0.3085,0.3085,0.3086,0.3086,0,0.2334,0.2242,0.2116,0.1957,0.1904,0.1911,0.1927,0.1926,0.1988,0.213,0.2238,0.2385,0.2517,0.2646,0.2779,0.271,0.2595,0.2604,0.2355,0.2306,0.2652,0.2611,0.2641,0.2641,0.2642,0.2642,0.2642,0.2642,0.2278,0.2124,0.2032,0.1875,0.1817,0.1763,0.1772,0.1805,0.1876,0.197,0.2055,0.2167,0.2306,0.2429,0.2423,0.2411,0.2168,0.214,0.2053,0.2221,0.2234,0.2245,0.2186,0.2127,0.2126,0.1614,0.1611,0.1608]},{"header":{"parameterUnit":"m.s-1","parameterCategory":2,"la1":30.2991,"la2":30.254,"lo1":-89.0895,"lo2":-89.0444,"dy":0.0017,"dx":0.0017,"nx":28,"ny":28,"refTime":"2024-04-19T21:00:00:Z","depth":"0","parameterNumber":3,"parameterNumberName":"V-component_of_CURRENTS"},"data":[0,0,0,0,0,0,0,0,0,0,0,0,0,0,0,0,0,0,0,0,0,0,0,0,0,0,0,0,0,0,0,0,0,0,0,0,0,0,0,0,0,0,0,0,0,0,0,0,0,0,0,0,0,0,0,0,0,0,-0.0463,-0.0465,0,-0.0569,-0.057,-0.0571,-0.0607,-0.0607,-0.0607,-0.0607,-0.065,-0.0651,-0.0652,0,0,0,0,0,0,0,0,0,0,0,0,0,-0.0187,-0.0192,-0.0463,-0.0465,-0.0467,-0.0569,-0.057,-0.0571,-0.0607,-0.0607,-0.0607,-0.0607,-0.065,-0.0651,-0.0652,0,0,0,0,0,0,0,0,0,0,0,0,0,-0.0296,-0.0194,-0.0463,-0.0501,-0.0506,-0.0569,-0.057,-0.0571,-0.0607,-0.0607,-0.0607,-0.0607,-0.065,-0.0651,-0.0653,-0.0659,0,0,-0.0657,-0.0658,0,0,0,0,0,0,0,0,-0.029,-0.0305,-0.0494,-0.0499,-0.0504,-0.058,-0.0489,-0.0599,-0.0607,-0.0562,-0.0607,-0.0607,-0.0625,-0.0628,-0.064,-0.0661,-0.0663,-0.0658,-0.0659,-0.0659,-0.066,0,0,0,0,0,0,0,-0.0282,-0.03,-0.0499,-0.0496,-0.0502,-0.0478,-0.0494,-0.0509,-0.0585,-0.0566,-0.0571,-0.0592,-0.0626,-0.0639,-0.0642,-0.0664,-0.0658,-0.0659,-0.066,-0.0661,-0.0687,-0.0687,0,0,0,0,0,0,-0.0288,-0.0295,-0.0496,-0.0503,-0.0402,-0.0484,-0.0501,-0.0551,-0.0587,-0.0595,-0.0591,-0.0593,-0.0636,-0.064,-0.0643,-0.0643,-0.0659,-0.0661,-0.0662,-0.0687,-0.0687,-0.0687,0,0,0,0,0,0,-0.0282,-0.0306,-0.0492,-0.0403,-0.0426,-0.049,-0.0544,-0.0553,-0.0565,-0.0608,-0.0613,-0.0595,-0.0636,-0.0641,-0.0651,-0.0645,-0.0661,-0.0663,-0.0688,-0.0687,-0.0687,-0.0648,0,0,0,0,0,0,-0.0274,-0.0303,-0.0324,-0.0405,-0.0432,-0.0523,-0.0545,-0.0555,-0.0581,-0.0584,-0.0613,-0.0617,-0.0637,-0.0649,-0.0653,-0.0648,-0.0664,-0.0688,-0.0688,-0.0687,-0.065,-0.0647,-0.0644,0,0,0,0,0,-0.0264,-0.0292,-0.0325,-0.0349,-0.0465,-0.0523,-0.0533,-0.0573,-0.0581,-0.0583,-0.0602,-0.0616,-0.0649,-0.065,-0.0654,-0.065,-0.0688,-0.0688,-0.0687,-0.0651,-0.0647,-0.0644,0,0,0,0,0,0,-0.017,-0.0302,-0.0339,-0.0404,-0.0459,-0.0531,-0.054,-0.0568,-0.0586,-0.0583,-0.0613,-0.0619,-0.0625,-0.0642,-0.0643,-0.0656,-0.0671,-0.0671,-0.0642,-0.0639,-0.0636,-0.0623,-0.0665,0,0,0,0,0,-0.0167,-0.0229,-0.0332,-0.0376,-0.0408,-0.0471,-0.0495,-0.0527,-0.0564,-0.0572,-0.0595,-0.0614,-0.0627,-0.0636,-0.0651,-0.0659,-0.0671,-0.0659,-0.0656,-0.0653,-0.0647,-0.0663,-0.0661,-0.0685,-0.0685,-0.0685,0,0,-0.0137,-0.022,-0.0251,-0.036,-0.0405,-0.0443,-0.0483,-0.0522,-0.0538,-0.0573,-0.0583,-0.0602,-0.0626,-0.0634,-0.0638,-0.0648,-0.0652,-0.0653,-0.065,-0.0645,-0.0662,-0.066,-0.0658,-0.0685,-0.0685,-0.0685,0,0,-0.0113,-0.019,-0.0234,-0.0284,-0.0367,-0.0408,-0.0419,-0.0493,-0.0509,-0.0531,-0.0555,-0.057,-0.0595,-0.0613,-0.0624,-0.0613,-0.0633,-0.0618,-0.0596,-0.0612,-0.061,-0.0609,-0.0615,-0.0615,-0.062,-0.062,-0.062,0,-0.0075,-0.0156,-0.0242,-0.0291,-0.0321,-0.0391,-0.0415,-0.0446,-0.0505,-0.0512,-0.0527,-0.0563,-0.0585,-0.0595,-0.0593,-0.0606,-0.0614,-0.0607,-0.0608,-0.0606,-0.0605,-0.0613,-0.0613,-0.0618,-0.0618,-0.0618,-0.0618,0,-0.0084,-0.0144,-0.0165,-0.026,-0.0291,-0.0323,-0.0389,-0.0407,-0.0434,-0.0468,-0.0484,-0.0519,-0.054,-0.0552,-0.0569,-0.0574,-0.0581,-0.0599,-0.0615,-0.0601,-0.0609,-0.061,-0.0615,-0.0616,-0.0616,-0.0617,0,0,-0.0044,-0.0152,-0.0162,-0.0191,-0.0279,-0.0305,-0.0326,-0.037,-0.0373,-0.0422,-0.0425,-0.0462,-0.0485,-0.0499,-0.0527,-0.0546,-0.0548,-0.0566,-0.0568,-0.0568,-0.0574,-0.0543,-0.0541,-0.0566,-0.0566,-0.0566,-0.0581,0,-0.0032,-0.0089,-0.0149,-0.0179,-0.0215,-0.027,-0.0277,-0.0315,-0.0346,-0.0362,-0.0408,-0.042,-0.0464,-0.0468,-0.0496,-0.0531,-0.0548,-0.0542,-0.0591,-0.0592,-0.0563,-0.054,-0.0451,-0.0454,-0.0581,-0.0582,-0.0582,0,-0.0038,-0.008,-0.0099,-0.0152,-0.0168,-0.018,-0.02,-0.0218,-0.0259,-0.0279,-0.0313,-0.0351,-0.0385,-0.0422,-0.0485,-0.0477,-0.0518,-0.0553,-0.0554,-0.0538,-0.0562,-0.049,-0.045,-0.0547,-0.0583,-0.0582,-0.0582,0,0.0025,-0.005,-0.005,-0.0072,-0.0133,-0.0132,-0.0151,-0.0186,-0.0187,-0.0223,-0.0221,-0.0285,-0.0297,-0.0368,-0.0442,-0.0462,-0.0502,-0.0543,-0.0556,-0.0554,-0.0494,-0.0487,-0.0547,-0.0582,-0.0582,-0.0582,-0.0582,0,0.0045,0.003,-0.0019,-0.0025,-0.0017,-0.0073,-0.0056,-0.0084,-0.0103,-0.0085,-0.0167,-0.0157,-0.0282,-0.0327,-0.0412,-0.047,-0.0481,-0.0539,-0.0552,-0.0477,-0.0469,-0.0563,-0.0637,-0.0582,-0.0582,-0.0582,-0.0582,0,0.0098,0.0065,0.005,0.0014,0.0008,0.0018,0.0002,0.0015,-0.0009,0.0014,0.0011,-0.0054,-0.0104,-0.0223,-0.0325,-0.0409,-0.0512,-0.0503,-0.0401,-0.0401,-0.0513,-0.0588,-0.0642,-0.0668,-0.0527,-0.0526,-0.0525,0,0.0105,0.0113,0.0103,0.0105,0.0087,0.009,0.01,0.0071,0.009,0.009,0.0117,0.0071,0.0065,-0.0075,-0.0216,-0.0345,-0.0459,-0.0376,-0.0405,-0.0494,-0.0588,-0.0632,-0.0654,-0.0312,-0.031,-0.0308,-0.0306,0,0.013,0.0151,0.016,0.0175,0.0184,0.0194,0.0206,0.0239,0.0229,0.0271,0.0318,0.0317,0.0191,0.0118,-0.007,-0.0177,-0.0408,-0.0342,-0.0459,-0.0439,-0.0464,-0.0502,-0.0335,-0.0289,-0.0291,-0.0292,-0.0293,-0.0294,0.016,0.0193,0.0228,0.0241,0.0259,0.0299,0.0345,0.0384,0.0458,0.056,0.0521,0.0606,0.0425,0.0196,0.0015,-0.0242,-0.0295,-0.032,-0.0406,-0.0445,-0.0457,-0.0247,-0.0205,-0.0206,-0.0207,-0.0208,-0.0209,0,0.0199,0.025,0.0276,0.0314,0.0362,0.0351,0.042,0.0499,0.0634,0.075,0.0837,0.0857,0.0641,0.0352,-0.0013,-0.0245,-0.0344,-0.0393,-0.0444,-0.0469,-0.029,-0.0267,-0.0205,-0.0205,-0.0204,-0.0204,-0.0204,-0.0204,0.0221,0.029,0.0316,0.0397,0.0433,0.0527,0.0588,0.0717,0.0831,0.1046,0.1171,0.1208,0.0994,0.0272,-0.0241,-0.0386,-0.0562,-0.0573,-0.0715,-0.061,-0.0611,-0.0611,-0.0607,-0.0616,-0.0617,-0.0807,-0.0809,-0.0811]}],[{"header":{"parameterUnit":"m.s-1","parameterCategory":2,"la1":30.2991,"la2":30.254,"lo1":-89.0895,"lo2":-89.0444,"dy":0.0017,"dx":0.0017,"nx":28,"ny":28,"refTime":"2024-04-19T21:00:00:Z","depth":"2","parameterNumber":2,"parameterNumberName":"U-component_of_CURRENTS"},"data":[0,0,0,0,0,0,0,0,0,0,0,0,0,0,0,0,0,0,0,0,0,0,0,0,0,0,0,0,0,0,0,0,0,0,0,0,0,0,0,0,0,0,0,0,0,0,0,0,0,0,0,0,0,0,0,0,0,0,0.1823,0.1822,0,0.1725,0.1724,0.1722,0.165,0.165,0.165,0.165,0.1532,0.1529,0.1526,0,0,0,0,0,0,0,0,0,0,0,0,0,0.1785,0.1786,0.1823,0.1822,0.1822,0.1725,0.1724,0.1722,0.165,0.165,0.165,0.165,0.1533,0.153,0.1526,0,0,0,0,0,0,0,0,0,0,0,0,0,0.1752,0.1787,0.1823,0.1778,0.1773,0.1726,0.1724,0.1721,0.165,0.165,0.165,0.165,0.1534,0.153,0.1526,0.1504,0,0,0.1512,0.151,0,0,0,0,0,0,0,0,0.1754,0.1753,0.1785,0.1781,0.1776,0.1704,0.1667,0.1649,0.1651,0.1692,0.165,0.165,0.1591,0.1582,0.1558,0.1498,0.1493,0.1512,0.1509,0.1507,0.1506,0,0,0,0,0,0,0,0.1756,0.1755,0.1779,0.1785,0.1779,0.1707,0.1703,0.1662,0.164,0.1688,0.1684,0.1681,0.1588,0.1562,0.1554,0.1491,0.1512,0.1508,0.1505,0.1503,0.1464,0.1465,0,0,0,0,0,0,0.1787,0.1759,0.1783,0.1777,0.1769,0.1709,0.1704,0.1723,0.1641,0.163,0.1681,0.1678,0.157,0.156,0.155,0.1555,0.1507,0.1503,0.15,0.1462,0.1464,0.1466,0,0,0,0,0,0,0.1787,0.1791,0.1787,0.1767,0.1763,0.1711,0.1733,0.1722,0.1706,0.1637,0.1624,0.168,0.1569,0.1556,0.1534,0.1549,0.1501,0.1497,0.146,0.1463,0.1465,0.1542,0,0,0,0,0,0,0.1787,0.1792,0.1816,0.1771,0.1765,0.1771,0.1733,0.172,0.1707,0.1701,0.1631,0.1619,0.1568,0.1541,0.1529,0.1542,0.1494,0.1458,0.1461,0.1464,0.1537,0.1547,0.1555,0,0,0,0,0,0.1786,0.181,0.1818,0.1821,0.1801,0.1772,0.1762,0.1719,0.1707,0.1704,0.1665,0.1621,0.1552,0.1538,0.1524,0.1536,0.1457,0.1461,0.1464,0.1533,0.1545,0.1554,0,0,0,0,0,0,0.1766,0.1804,0.1812,0.1837,0.1819,0.1762,0.1753,0.1733,0.1698,0.1696,0.1633,0.1618,0.1607,0.1568,0.1555,0.1538,0.1501,0.1502,0.1559,0.1569,0.1577,0.1582,0.149,0,0,0,0,0,0.1788,0.184,0.1832,0.1848,0.1849,0.1809,0.1794,0.1771,0.1735,0.1718,0.1674,0.1636,0.161,0.1588,0.1555,0.1538,0.1544,0.1542,0.1551,0.1558,0.1556,0.1589,0.1601,0.1478,0.1478,0.1478,0,0,0.1772,0.181,0.1827,0.1852,0.1833,0.1825,0.1797,0.1783,0.1771,0.1712,0.1686,0.1664,0.1616,0.16,0.1592,0.1567,0.1605,0.1563,0.1569,0.1563,0.1594,0.1606,0.1617,0.148,0.148,0.1479,0,0,0.1769,0.1814,0.1853,0.1853,0.186,0.184,0.1848,0.1813,0.1798,0.1779,0.1745,0.174,0.168,0.1657,0.1636,0.1676,0.1656,0.1669,0.1703,0.1736,0.1746,0.1755,0.1815,0.1829,0.1666,0.1666,0.1666,0,0.1745,0.1807,0.1845,0.187,0.1866,0.1856,0.1855,0.1838,0.1798,0.1796,0.1782,0.1741,0.1706,0.1697,0.1712,0.1693,0.1719,0.1664,0.1748,0.1756,0.1764,0.1823,0.1837,0.167,0.167,0.1669,0.1669,0,0.1762,0.1809,0.1821,0.1872,0.187,0.1867,0.1861,0.1863,0.1854,0.1836,0.1839,0.1806,0.1783,0.178,0.175,0.1788,0.1794,0.1762,0.172,0.1781,0.184,0.1853,0.1676,0.1675,0.1674,0.1673,0,0,0.1704,0.1817,0.1818,0.1851,0.1875,0.1869,0.1878,0.1879,0.1892,0.1874,0.1887,0.1861,0.1862,0.1841,0.1822,0.1844,0.1935,0.1829,0.1829,0.1888,0.2039,0.2074,0.2092,0.192,0.1921,0.1923,0.2072,0,0.1696,0.177,0.1816,0.184,0.1867,0.188,0.1887,0.1892,0.1898,0.1912,0.1907,0.1911,0.1879,0.1887,0.1907,0.1923,0.1968,0.19,0.1971,0.1974,0.1996,0.2106,0.1827,0.1938,0.2084,0.2086,0.2088,0,0.1687,0.1754,0.1801,0.1868,0.1875,0.1881,0.1911,0.1917,0.1945,0.1955,0.1971,0.197,0.2003,0.1971,0.2042,0.2003,0.2033,0.2047,0.2053,0.206,0.2032,0.1893,0.1956,0.2109,0.2108,0.2106,0.2105,0,0.1648,0.1726,0.1779,0.1795,0.1866,0.1883,0.19,0.193,0.1946,0.1994,0.2022,0.205,0.2081,0.2113,0.215,0.2106,0.2243,0.2181,0.2247,0.225,0.2013,0.1993,0.2249,0.2248,0.2248,0.2248,0.2247,0,0.1625,0.1659,0.1773,0.1798,0.184,0.188,0.1909,0.194,0.1985,0.2017,0.2046,0.2088,0.2119,0.2189,0.2204,0.2292,0.2295,0.2287,0.2298,0.2038,0.202,0.2146,0.2132,0.2253,0.2252,0.2251,0.225,0,0.1572,0.1649,0.1718,0.1811,0.1834,0.186,0.1911,0.1932,0.1989,0.2041,0.2064,0.2143,0.2254,0.2305,0.2388,0.2378,0.2443,0.247,0.219,0.2166,0.2415,0.2403,0.256,0.2563,0.2565,0.2567,0.2569,0,0.1559,0.1598,0.1719,0.1756,0.18,0.1845,0.1869,0.1925,0.1954,0.207,0.2097,0.2234,0.2298,0.2461,0.244,0.2509,0.2565,0.2353,0.2213,0.2456,0.245,0.2435,0.2421,0.1935,0.1931,0.1928,0.1926,0,0.1524,0.1577,0.1637,0.1736,0.1781,0.1811,0.1858,0.1877,0.1953,0.202,0.2129,0.2197,0.2314,0.2254,0.2363,0.236,0.2316,0.23,0.2614,0.192,0.1884,0.1873,0.1875,0.1898,0.1901,0.1903,0.1905,0.1906,0.149,0.1529,0.1626,0.1704,0.1748,0.1769,0.177,0.1827,0.1877,0.1909,0.2022,0.2033,0.2059,0.2062,0.2058,0.207,0.2223,0.2129,0.213,0.2136,0.2057,0.2029,0.2058,0.2061,0.2064,0.2067,0.2069,0,0.1444,0.1508,0.1583,0.1662,0.1676,0.1729,0.1754,0.1722,0.1761,0.1772,0.1801,0.1641,0.1608,0.17,0.1621,0.1679,0.1564,0.1682,0.1466,0.1496,0.1522,0.1403,0.1235,0.1233,0.1231,0.1229,0,0,0.1427,0.1483,0.154,0.1577,0.1618,0.1605,0.1606,0.1557,0.1537,0.147,0.1424,0.1413,0.1563,0.1314,0.1324,0.1267,0.1362,0.1229,0.1888,0.1655,0.1677,0.1769,0.1622,0,0,0,0,0]},{"header":{"parameterUnit":"m.s-1","parameterCategory":2,"la1":30.2991,"la2":30.254,"lo1":-89.0895,"lo2":-89.0444,"dy":0.0017,"dx":0.0017,"nx":28,"ny":28,"refTime":"2024-04-19T21:00:00:Z","depth":"2","parameterNumber":3,"parameterNumberName":"V-component_of_CURRENTS"},"data":[0,0,0,0,0,0,0,0,0,0,0,0,0,0,0,0,0,0,0,0,0,0,0,0,0,0,0,0,0,0,0,0,0,0,0,0,0,0,0,0,0,0,0,0,0,0,0,0,0,0,0,0,0,0,0,0,0,0,-0.0017,-0.0016,0,0.01,0.0101,0.0102,0.0125,0.0124,0.0124,0.0123,0.009,0.0089,0.0089,0,0,0,0,0,0,0,0,0,0,0,0,0,-0.0153,-0.0151,-0.0017,-0.0016,-0.0014,0.0099,0.0101,0.0102,0.0125,0.0124,0.0124,0.0123,0.009,0.0089,0.0089,0,0,0,0,0,0,0,0,0,0,0,0,0,-0.0075,-0.0151,-0.0018,0.0014,0.0019,0.0099,0.0101,0.0102,0.0125,0.0124,0.0124,0.0123,0.009,0.0089,0.0089,0.0102,0,0,0.0087,0.0087,0,0,0,0,0,0,0,0,-0.0079,-0.007,0.0008,0.0012,0.0017,0.01,0.0041,0.0096,0.0125,0.0081,0.0123,0.0122,0.0082,0.0082,0.0103,0.01,0.0099,0.0087,0.0087,0.0086,0.0086,0,0,0,0,0,0,0,-0.0085,-0.0075,0.0025,0.001,0.0016,0.0046,0.0055,0.0052,0.0079,0.0084,0.0087,0.0107,0.0083,0.0104,0.0102,0.0098,0.0087,0.0086,0.0086,0.0086,0.0038,0.0038,0,0,0,0,0,0,-0.0094,-0.008,0.0021,0.0029,-0.003,0.0049,0.006,0.0071,0.0082,0.0086,0.0108,0.0108,0.0105,0.0103,0.01,0.0063,0.0086,0.0086,0.0085,0.0039,0.0038,0.0037,0,0,0,0,0,0,-0.0097,-0.0086,0.0017,-0.002,-0.0004,0.0053,0.0066,0.0074,0.007,0.0102,0.0101,0.0092,0.0104,0.0101,0.0085,0.0063,0.0086,0.0085,0.004,0.0039,0.0038,0.0021,0,0,0,0,0,0,-0.0102,-0.0088,-0.0099,-0.002,-0.0002,0.005,0.0067,0.0077,0.0087,0.0087,0.0089,0.0087,0.0103,0.0086,0.0084,0.0063,0.0085,0.0042,0.004,0.0038,0.0023,0.002,0.0017,0,0,0,0,0,-0.0107,-0.0108,-0.01,-0.0088,-0.0013,0.005,0.0061,0.0097,0.0086,0.0087,0.0087,0.0086,0.0073,0.0085,0.0083,0.0061,0.0042,0.004,0.0038,0.0024,0.002,0.0017,0,0,0,0,0,0,-0.0157,-0.0103,-0.0093,-0.0075,-0.0026,0.0055,0.0059,0.0078,0.0083,0.0068,0.0082,0.0081,0.0059,0.0059,0.0071,0.0041,0.0054,0.0051,0.0043,0.004,0.0036,0.0036,0.0084,0,0,0,0,0,-0.0176,-0.0178,-0.0105,-0.0094,-0.0075,-0.0019,0.0002,0.003,0.0058,0.0059,0.0058,0.0052,0.0056,0.0045,0.0047,0.003,0.002,0.0011,0.0007,0.0005,0.0002,-0.0021,-0.0026,0.0031,0.0031,0.0031,0,0,-0.0186,-0.0162,-0.0159,-0.0108,-0.0073,-0.0031,-0.0011,0.0019,0.0042,0.0051,0.0044,0.004,0.0049,0.004,0.0028,0.0032,-0.0019,0.0002,0.0,-0.0001,-0.0024,-0.0029,-0.0034,0.0029,0.0029,0.003,0,0,-0.0195,-0.0195,-0.0191,-0.0153,-0.0105,-0.0065,-0.0066,-0.0009,-0.0006,0.0001,0.0012,-0.0005,-0.001,0.0003,0.0008,-0.0017,-0.0032,-0.0033,-0.0052,-0.0075,-0.008,-0.0084,-0.0113,-0.0119,-0.0038,-0.0038,-0.0038,0,-0.02,-0.0188,-0.0177,-0.015,-0.0113,-0.0086,-0.0047,-0.0032,0.0007,0.0006,-0.0013,-0.0019,-0.0021,-0.0013,-0.0023,-0.0024,-0.0046,-0.0035,-0.0079,-0.0083,-0.0087,-0.0115,-0.0122,-0.0039,-0.0039,-0.0039,-0.0039,0,-0.0192,-0.0179,-0.0172,-0.0135,-0.0103,-0.0067,-0.0027,-0.0027,-0.0036,-0.0019,-0.004,-0.0043,-0.0049,-0.0057,-0.0048,-0.0076,-0.0086,-0.0076,-0.0066,-0.0093,-0.0122,-0.0129,-0.0041,-0.0041,-0.004,-0.004,0,0,-0.0162,-0.0165,-0.0155,-0.0135,-0.0088,-0.0047,-0.0038,-0.0,0.0006,-0.0018,-0.0019,-0.0038,-0.0067,-0.0065,-0.007,-0.0095,-0.0147,-0.0108,-0.0109,-0.0133,-0.0214,-0.015,-0.0151,-0.0151,-0.0152,-0.0153,-0.0225,0,-0.0137,-0.0114,-0.0112,-0.0059,-0.0028,-0.0006,0.0015,0.0035,0.0026,0.0018,-0.0018,-0.0031,-0.0062,-0.0077,-0.0111,-0.0124,-0.0166,-0.0129,-0.0187,-0.0189,-0.0125,-0.0157,-0.0145,-0.0202,-0.0232,-0.0233,-0.0234,0,-0.0095,-0.0089,-0.0059,-0.0018,0.0,0.0026,0.0064,0.0085,0.0072,0.0055,0.0011,-0.0021,-0.0068,-0.0093,-0.0167,-0.0147,-0.0195,-0.0216,-0.0219,-0.0156,-0.0137,-0.0179,-0.0214,-0.0246,-0.0245,-0.0244,-0.0243,0,-0.0063,-0.0028,-0.0016,0.0004,0.0042,0.0053,0.0073,0.0083,0.0105,0.006,0.0056,-0.0015,-0.0044,-0.012,-0.018,-0.0189,-0.0252,-0.0261,-0.0253,-0.025,-0.0247,-0.024,-0.033,-0.033,-0.033,-0.033,-0.0329,0,-0.0014,0.0016,-0.001,0.0009,0.005,0.0065,0.0101,0.0108,0.0112,0.0144,0.006,0.0073,-0.0055,-0.0103,-0.0179,-0.0227,-0.0259,-0.0263,-0.0263,-0.0253,-0.0246,-0.0283,-0.0277,-0.0332,-0.0332,-0.0331,-0.0331,0,0.004,0.0016,0.0047,0.0055,0.0063,0.0091,0.0133,0.0166,0.015,0.0185,0.0167,0.0124,0.0068,-0.0041,-0.0143,-0.0198,-0.0262,-0.0274,-0.0253,-0.0247,-0.0256,-0.025,-0.0294,-0.0292,-0.0291,-0.0289,-0.0288,0,0.0071,0.0076,0.0077,0.0097,0.01,0.0132,0.0173,0.0181,0.0224,0.0244,0.0279,0.0218,0.0249,0.0122,-0.0033,-0.0162,-0.0204,-0.0231,-0.0234,-0.0257,-0.0253,-0.0249,-0.0245,-0.0259,-0.0258,-0.0257,-0.0256,0,0.0138,0.0115,0.0128,0.0156,0.0187,0.0242,0.0288,0.0337,0.0365,0.042,0.05,0.0524,0.038,0.0267,0.0072,-0.0016,-0.0211,-0.0211,-0.0257,-0.0242,-0.0222,-0.0218,-0.0216,-0.0248,-0.0248,-0.0249,-0.025,-0.025,0.0191,0.0199,0.0193,0.0237,0.0278,0.0357,0.0422,0.0501,0.0612,0.0699,0.0697,0.0727,0.0525,0.0306,0.0128,-0.0107,-0.0101,-0.0185,-0.019,-0.0196,-0.0151,-0.0126,-0.0127,-0.0127,-0.0127,-0.0128,-0.0128,0,0.0263,0.0249,0.0285,0.0332,0.0408,0.0401,0.0517,0.0614,0.0779,0.082,0.0906,0.076,0.0634,0.0375,0.0047,-0.01,-0.0146,-0.0158,-0.0205,-0.021,-0.0216,-0.0175,-0.0157,-0.0157,-0.0158,-0.0159,0,0,0.0293,0.0318,0.0324,0.0444,0.0482,0.0588,0.0663,0.0811,0.0883,0.0987,0.0961,0.0946,0.0666,0.0425,0.019,0.0,-0.0065,-0.0025,0.0018,-0.0014,-0.0018,-0.0208,-0.0146,0,0,0,0,0]}],[{"header":{"parameterUnit":"m.s-1","parameterCategory":2,"la1":30.2991,"la2":30.254,"lo1":-89.0895,"lo2":-89.0444,"dy":0.0017,"dx":0.0017,"nx":28,"ny":28,"refTime":"2024-04-19T21:00:00:Z","depth":"4","parameterNumber":2,"parameterNumberName":"U-component_of_CURRENTS"},"data":[0,0,0,0,0,0,0,0,0,0,0,0,0,0,0,0,0,0,0,0,0,0,0,0,0,0,0,0,0,0,0,0,0,0,0,0,0,0,0,0,0,0,0,0,0,0,0,0,0,0,0,0,0,0,0,0,0,0,0.0455,0.0456,0,0.0498,0.0498,0.0499,0.0526,0.0526,0.0526,0.0527,0.0557,0.0557,0.0558,0,0,0,0,0,0,0,0,0,0,0,0,0,0.034,0.0343,0.0455,0.0456,0.0456,0.0498,0.0499,0.0499,0.0526,0.0526,0.0526,0.0527,0.0557,0.0557,0.0558,0,0,0,0,0,0,0,0,0,0,0,0,0,0.0388,0.0344,0.0455,0.0475,0.0477,0.0498,0.0499,0.0499,0.0526,0.0526,0.0526,0.0527,0.0556,0.0557,0.0558,0.0561,0,0,0.0561,0.0562,0,0,0,0,0,0,0,0,0.0385,0.0392,0.0471,0.0473,0.0476,0.0507,0.0469,0.0519,0.0526,0.0508,0.0527,0.0527,0.0539,0.0541,0.0549,0.0562,0.0563,0.0562,0.0562,0.0563,0.0563,0,0,0,0,0,0,0,0.0382,0.039,0.0473,0.0472,0.0475,0.0462,0.0469,0.0478,0.0521,0.0509,0.0511,0.0515,0.054,0.0548,0.055,0.0564,0.0562,0.0562,0.0563,0.0563,0.0646,0.0648,0,0,0,0,0,0,0.0379,0.0388,0.0471,0.0474,0.043,0.0464,0.0472,0.0497,0.0522,0.0526,0.0515,0.0517,0.0546,0.0549,0.0551,0.0635,0.0563,0.0564,0.0564,0.0645,0.0647,0.0648,0,0,0,0,0,0,0.0377,0.0387,0.0469,0.043,0.0439,0.0466,0.0493,0.0498,0.0536,0.0526,0.053,0.0552,0.0547,0.055,0.0574,0.0633,0.0564,0.0565,0.0643,0.0645,0.0648,0.0751,0,0,0,0,0,0,0.0374,0.0387,0.041,0.0431,0.0442,0.0495,0.0493,0.0498,0.0536,0.0539,0.0558,0.056,0.0547,0.0573,0.0575,0.0633,0.0566,0.0641,0.0644,0.0647,0.0746,0.0757,0.0767,0,0,0,0,0,0.037,0.0394,0.0411,0.0421,0.0472,0.0496,0.0501,0.0519,0.0538,0.0555,0.0566,0.0561,0.0594,0.0574,0.0577,0.0637,0.0639,0.0643,0.0647,0.0741,0.0755,0.0766,0,0,0,0,0,0,0.0354,0.04,0.0419,0.0457,0.0482,0.05,0.0524,0.054,0.0565,0.0575,0.0573,0.0575,0.0623,0.0608,0.0587,0.0668,0.062,0.0624,0.0691,0.0704,0.0714,0.0774,0.0567,0,0,0,0,0,0.0363,0.0398,0.0432,0.0464,0.0486,0.0515,0.0533,0.0544,0.0564,0.0579,0.0596,0.0613,0.0636,0.0651,0.066,0.07,0.0692,0.0741,0.0751,0.076,0.081,0.0843,0.0862,0.066,0.066,0.066,0,0,0.0365,0.0395,0.0416,0.0464,0.0493,0.0531,0.0528,0.0563,0.0602,0.0576,0.0644,0.065,0.0653,0.0699,0.072,0.0697,0.0801,0.0765,0.0773,0.0818,0.0849,0.0869,0.0886,0.0663,0.0662,0.0662,0,0,0.0374,0.0422,0.0453,0.048,0.0524,0.0551,0.0571,0.0612,0.0645,0.0699,0.0694,0.0742,0.0772,0.0793,0.0806,0.088,0.0854,0.0877,0.0986,0.1016,0.1034,0.105,0.1016,0.1028,0.0885,0.0885,0.0885,0,0.0378,0.0427,0.0462,0.0494,0.0528,0.0571,0.061,0.0652,0.0693,0.0709,0.0735,0.0804,0.0831,0.0879,0.0941,0.0912,0.0899,0.0937,0.1033,0.1048,0.1063,0.1025,0.1037,0.089,0.089,0.0889,0.0889,0,0.04,0.0451,0.0476,0.0546,0.058,0.0624,0.0681,0.0716,0.0777,0.0807,0.0879,0.0926,0.0974,0.0993,0.1021,0.1125,0.1069,0.1039,0.1006,0.109,0.1043,0.1054,0.0898,0.0896,0.0895,0.0893,0,0,0.0394,0.0479,0.049,0.0533,0.0616,0.0645,0.0712,0.0772,0.0819,0.0888,0.0954,0.1066,0.1106,0.113,0.115,0.1219,0.1331,0.1213,0.1212,0.1189,0.136,0.1208,0.1204,0.1318,0.1322,0.1325,0.1269,0,0.0415,0.0477,0.0519,0.0602,0.0653,0.0701,0.0762,0.0808,0.0881,0.0951,0.1014,0.1102,0.1149,0.1211,0.1291,0.133,0.1373,0.1347,0.1278,0.1276,0.1139,0.1218,0.1336,0.1276,0.1279,0.128,0.1282,0,0.0426,0.0475,0.0547,0.0639,0.0667,0.0721,0.0812,0.0871,0.0949,0.1005,0.109,0.115,0.129,0.1322,0.1433,0.1414,0.1434,0.1443,0.1438,0.1285,0.1147,0.1186,0.13,0.1299,0.1297,0.1296,0.1295,0,0.0397,0.0496,0.0559,0.0592,0.0697,0.0734,0.08,0.0878,0.0938,0.106,0.1106,0.1236,0.1317,0.1397,0.145,0.1477,0.1509,0.1513,0.1357,0.1341,0.1447,0.1431,0.1585,0.1585,0.1585,0.1586,0.1586,0,0.0402,0.0455,0.0556,0.0589,0.0668,0.0742,0.0839,0.0891,0.0997,0.1053,0.116,0.1215,0.1362,0.1381,0.1442,0.1409,0.1485,0.1409,0.1345,0.148,0.1469,0.145,0.1435,0.1583,0.1584,0.1584,0.1585,0,0.0361,0.0427,0.0502,0.0615,0.0657,0.0714,0.0859,0.0915,0.101,0.1085,0.1136,0.1232,0.1267,0.1289,0.1373,0.1357,0.1357,0.1298,0.1386,0.132,0.1178,0.1169,0.1197,0.1191,0.1187,0.1183,0.118,0,0.0345,0.038,0.0499,0.0546,0.0609,0.0718,0.078,0.0912,0.0967,0.1069,0.1078,0.1136,0.1178,0.112,0.1195,0.1187,0.1179,0.1157,0.1282,0.1218,0.1153,0.115,0.1148,0.1173,0.1172,0.1171,0.117,0,0.0318,0.0361,0.0419,0.0506,0.0588,0.0672,0.0771,0.0803,0.0923,0.1013,0.1023,0.1046,0.1018,0.1064,0.0996,0.1017,0.1195,0.1113,0.1125,0.1243,0.1189,0.1128,0.1131,0.1154,0.1157,0.1158,0.1159,0,0.0288,0.0318,0.0389,0.0472,0.0545,0.0584,0.0661,0.0725,0.0798,0.0902,0.0902,0.0928,0.1001,0.0967,0.0936,0.0907,0.0962,0.0991,0.1012,0.1029,0.1005,0.0914,0.0768,0,0,0,0,0,0.0266,0.0294,0.0353,0.0427,0.0485,0.0534,0.0623,0.0697,0.08,0.078,0.0847,0.0824,0.0818,0.0847,0.0792,0.0872,0.0948,0.0807,0.0988,0.1069,0.1087,0.1075,0,0,0,0,0,0,0.0249,0.0289,0.0331,0.0365,0.0398,0.0463,0.0509,0.0586,0.059,0.0691,0.0682,0.0783,0.077,0.0821,0.0775,0.0781,0.0884,0.0845,0.0843,0.1059,0.1076,0.109,0.1084,0,0,0,0,0]},{"header":{"parameterUnit":"m.s-1","parameterCategory":2,"la1":30.2991,"la2":30.254,"lo1":-89.0895,"lo2":-89.0444,"dy":0.0017,"dx":0.0017,"nx":28,"ny":28,"refTime":"2024-04-19T21:00:00:Z","depth":"4","parameterNumber":3,"parameterNumberName":"V-component_of_CURRENTS"},"data":[0,0,0,0,0,0,0,0,0,0,0,0,0,0,0,0,0,0,0,0,0,0,0,0,0,0,0,0,0,0,0,0,0,0,0,0,0,0,0,0,0,0,0,0,0,0,0,0,0,0,0,0,0,0,0,0,0,0,0.0357,0.0357,0,0.0324,0.0324,0.0323,0.0322,0.0323,0.0323,0.0324,0.0275,0.0273,0.0272,0,0,0,0,0,0,0,0,0,0,0,0,0,0.037,0.037,0.0357,0.0357,0.0356,0.0324,0.0324,0.0323,0.0322,0.0323,0.0323,0.0324,0.0275,0.0273,0.0271,0,0,0,0,0,0,0,0,0,0,0,0,0,0.0354,0.037,0.0357,0.0352,0.0351,0.0324,0.0324,0.0323,0.0322,0.0323,0.0323,0.0324,0.0276,0.0274,0.0271,0.0244,0,0,0.0264,0.0262,0,0,0,0,0,0,0,0,0.0355,0.0353,0.0353,0.0352,0.0351,0.0328,0.031,0.0296,0.0322,0.0333,0.0324,0.0324,0.0291,0.0287,0.028,0.0241,0.0239,0.0263,0.0262,0.0261,0.026,0,0,0,0,0,0,0,0.0356,0.0354,0.0344,0.0353,0.0352,0.0334,0.0333,0.0308,0.0309,0.0332,0.0332,0.0328,0.029,0.0282,0.0279,0.0239,0.0263,0.0261,0.026,0.0259,0.0167,0.0166,0,0,0,0,0,0,0.0362,0.0356,0.0345,0.0343,0.0355,0.0334,0.0333,0.0335,0.0309,0.0306,0.0328,0.0328,0.0286,0.0281,0.0277,0.0252,0.0261,0.0258,0.0257,0.0168,0.0167,0.0166,0,0,0,0,0,0,0.0362,0.0361,0.0346,0.0348,0.0345,0.0333,0.0336,0.0334,0.0338,0.0306,0.0303,0.0336,0.0286,0.028,0.0253,0.025,0.0257,0.0255,0.0169,0.0168,0.0167,0.0196,0,0,0,0,0,0,0.0363,0.0362,0.0369,0.0349,0.0345,0.0334,0.0335,0.0333,0.0334,0.0335,0.0311,0.0307,0.0286,0.0257,0.0251,0.0246,0.0253,0.017,0.0169,0.0167,0.0196,0.0196,0.0195,0,0,0,0,0,0.0364,0.0369,0.0369,0.0368,0.0354,0.0334,0.033,0.0323,0.0334,0.0331,0.0313,0.0308,0.0241,0.0254,0.0247,0.0242,0.0171,0.0169,0.0167,0.0196,0.0196,0.0195,0,0,0,0,0,0,0.0382,0.0369,0.0369,0.0372,0.0356,0.0334,0.0336,0.0331,0.0315,0.0321,0.0297,0.029,0.0264,0.0244,0.0259,0.0208,0.0205,0.0201,0.023,0.0229,0.0229,0.027,0.0251,0,0,0,0,0,0.0389,0.0389,0.037,0.0374,0.0372,0.0358,0.0352,0.0343,0.0325,0.0321,0.0303,0.0277,0.0246,0.0233,0.0203,0.0177,0.0161,0.0167,0.0167,0.0167,0.0194,0.0148,0.0147,0.0159,0.0159,0.0159,0,0,0.0401,0.0391,0.0395,0.0378,0.0373,0.0366,0.0357,0.035,0.0346,0.0316,0.0311,0.0277,0.0238,0.0206,0.0193,0.0194,0.0151,0.0164,0.0165,0.0192,0.0146,0.0145,0.0144,0.0158,0.0158,0.0158,0,0,0.0414,0.0417,0.0419,0.0405,0.0389,0.0378,0.038,0.036,0.0358,0.0339,0.0312,0.0279,0.0243,0.0208,0.0187,0.0166,0.0149,0.0152,0.0188,0.0142,0.0142,0.0141,0.0109,0.0106,0.0153,0.0154,0.0154,0,0.0429,0.043,0.0415,0.0407,0.0404,0.0389,0.039,0.0379,0.035,0.0336,0.0344,0.0274,0.0246,0.0197,0.0199,0.0168,0.0147,0.0195,0.0144,0.0143,0.0142,0.011,0.0106,0.0155,0.0155,0.0154,0.0154,0,0.0436,0.0439,0.0442,0.0432,0.0421,0.0421,0.0402,0.0387,0.0388,0.0368,0.0331,0.0292,0.0258,0.023,0.022,0.0186,0.0175,0.0149,0.0153,0.0143,0.0109,0.0104,0.0156,0.0156,0.0156,0.0155,0,0,0.0465,0.0452,0.0454,0.0456,0.0437,0.0429,0.0418,0.0395,0.0393,0.0362,0.0353,0.0303,0.0294,0.0272,0.0237,0.0205,0.0179,0.0193,0.019,0.0177,0.0093,0.009,0.0084,0.0146,0.0145,0.0145,0.007,0,0.0481,0.0479,0.0465,0.0473,0.0476,0.045,0.0445,0.0414,0.0402,0.0386,0.0337,0.0327,0.0306,0.0307,0.0268,0.0204,0.017,0.0204,0.0093,0.009,0.0101,0.0079,0.0143,0.0066,0.0065,0.0064,0.0063,0,0.049,0.0489,0.0502,0.0495,0.0497,0.0501,0.0487,0.048,0.0438,0.0429,0.0399,0.0376,0.0337,0.0329,0.0226,0.0252,0.0194,0.0138,0.0132,0.0126,0.0079,0.0077,0.0054,0.0054,0.0055,0.0056,0.0056,0,0.0512,0.0514,0.0532,0.053,0.0519,0.0523,0.0526,0.0494,0.0501,0.0478,0.0475,0.0416,0.0406,0.0322,0.0234,0.0237,0.0112,0.0087,0.0019,0.0017,0.0032,0.0034,0.0015,0.0015,0.0015,0.0015,0.0015,0,0.0525,0.054,0.0553,0.0558,0.0581,0.0568,0.0599,0.0572,0.0573,0.0573,0.0526,0.0509,0.0411,0.0327,0.024,0.0121,0.0111,0.0036,-0.0001,0.0043,0.0046,0.0028,0.003,0.0012,0.0013,0.0013,0.0014,0,0.0537,0.0548,0.0567,0.058,0.0592,0.0612,0.0658,0.0675,0.0666,0.0667,0.0671,0.0589,0.0479,0.0353,0.0208,0.0135,0.0014,-0.0032,0.0037,0.0002,-0.005,-0.0045,-0.0103,-0.0104,-0.0105,-0.0105,-0.0106,0,0.0532,0.0554,0.0588,0.0605,0.0621,0.0667,0.0698,0.0722,0.0737,0.0703,0.0689,0.0604,0.053,0.0312,0.0188,0.0004,-0.0025,-0.0073,-0.0058,-0.0031,-0.0062,-0.0056,-0.0051,-0.0107,-0.0107,-0.0107,-0.0107,0,0.0532,0.0564,0.0577,0.0621,0.0666,0.0713,0.0757,0.077,0.0782,0.0787,0.0706,0.0604,0.0463,0.0307,0.0166,0.0032,-0.0029,-0.0079,-0.0079,-0.0066,-0.0036,-0.0064,-0.0058,-0.0109,-0.0109,-0.0109,-0.0108,0,0.0529,0.0548,0.0586,0.062,0.067,0.0709,0.0748,0.076,0.0783,0.0739,0.0717,0.0571,0.0509,0.0319,0.0184,0.006,0.0031,0.0007,0.0002,0.0003,0.0058,0.0113,0.0061,0,0,0,0,0,0.0523,0.0547,0.0578,0.0611,0.0662,0.0707,0.075,0.0785,0.08,0.0748,0.0735,0.0603,0.041,0.0323,0.0196,0.0163,0.0004,0.0012,-0.0028,-0.012,-0.0118,-0.0072,0,0,0,0,0,0,0.0514,0.0549,0.0571,0.0603,0.0629,0.0703,0.0734,0.0756,0.0721,0.0712,0.0602,0.0587,0.0387,0.0479,0.0197,0.0162,0.0123,-0.0068,-0.007,-0.0122,-0.012,-0.0118,-0.0069,0,0,0,0,0]}]]